Weather History for Land O' Lakes, WI

Change the Weather History Date:

Friday, March 29, 2013

  Actual Average (KEGV) Record (KEGV)
Temperature  
Mean Temperature 27 °F -  
Max Temperature 46 °F 43 °F 62 °F (1993)
Min Temperature 8 °F 24 °F 4 °F (2011)
Degree Days  
Heating Degree Days 38    
Moisture  
Dew Point 14 °F    
Average Humidity 58    
Maximum Humidity 93    
Minimum Humidity 25    
Precipitation  
Precipitation 0.00 in - - ()
Sea Level Pressure  
Sea Level Pressure 30.21 in    
Wind  
Wind Speed 1 mph (WSW)    
Max Wind Speed 7 mph    
Max Gust Speed -    
Visibility 10 miles    
Events      
Averages and records for this station are not official NWS values.
T = Trace of Precipitation, MM = Missing Value Source: NWS Daily Summary

Daily Weather History Graph

Daily Weather History Graph

Search for Another Location

Airport:

Trip Planner

Search our weather history database for the weather conditions in past years. The results will help you decide how hot, cold, wet, or windy it might be!

Date:

Astronomy

Mar. 29, 2013 Rise Set
Actual Time 6:41 AM CDT 7:21 PM CDT
Civil Twilight 6:11 AM CDT 7:52 PM CDT
Nautical Twilight 5:35 AM CDT 8:28 PM CDT
Astronomical Twilight 4:58 AM CDT 9:05 PM CDT
Moon 10:33 PM CDT (3/29) 7:41 AM CDT (3/29)
Length of Visible Light 13h 40m
Length of Day
12h 39m
Waning Gibbous, 93% of the Moon is Illuminated
Mar 29
Waning Gibbous
Apr 2
Last Quarter
Apr 10
New
Apr 18
First Quarter
Apr 25
Full

Hourly Weather History & Observations

Time (CDT) Temp. Windchill Dew Point Humidity Pressure Visibility Wind Dir Wind Speed Gust Speed Precip Events Conditions
12:15 AM 19.4 °F - 17.6 °F 93% 30.25 in 10.0 mi Calm Calm - N/A   Clear
12:35 AM 17.6 °F - 15.8 °F 93% 30.26 in 10.0 mi Calm Calm - N/A   Clear
12:55 AM 17.6 °F - 14.0 °F 86% 30.26 in 10.0 mi Calm Calm - N/A   Clear
1:15 AM 17.6 °F - 14.0 °F 86% 30.26 in 10.0 mi Calm Calm - N/A   Clear
1:35 AM 15.8 °F - 14.0 °F 93% 30.26 in 10.0 mi Calm Calm - N/A   Clear
1:55 AM 14.0 °F - 12.2 °F 93% 30.26 in 10.0 mi Calm Calm - N/A   Clear
2:15 AM 14.0 °F - 12.2 °F 93% 30.26 in 10.0 mi Calm Calm - N/A   Clear
2:35 AM 14.0 °F - 12.2 °F 93% 30.26 in 10.0 mi Calm Calm - N/A   Clear
2:55 AM 12.2 °F - 10.4 °F 92% 30.26 in 10.0 mi Calm Calm - N/A   Clear
3:15 AM 12.2 °F - 10.4 °F 92% 30.26 in 10.0 mi Calm Calm - N/A   Clear
3:35 AM 12.2 °F - 10.4 °F 92% 30.26 in 10.0 mi Calm Calm - N/A   Clear
3:55 AM 12.2 °F - 8.6 °F 85% 30.25 in 10.0 mi Calm Calm - N/A   Clear
4:15 AM 10.4 °F - 8.6 °F 92% 30.25 in 10.0 mi Calm Calm - N/A   Clear
4:35 AM 12.2 °F - 8.6 °F 85% 30.25 in 10.0 mi Calm Calm - N/A   Clear
4:55 AM 10.4 °F - 8.6 °F 92% 30.26 in 10.0 mi Calm Calm - N/A   Clear
5:15 AM 10.4 °F - 6.8 °F 85% 30.26 in 10.0 mi Calm Calm - N/A   Clear
5:35 AM 12.2 °F - 10.4 °F 92% 30.27 in 10.0 mi Calm Calm - N/A   Clear
5:55 AM 10.4 °F - 6.8 °F 85% 30.27 in 10.0 mi Calm Calm - N/A   Clear
6:15 AM 8.6 °F - 6.8 °F 92% 30.27 in 10.0 mi Calm Calm - N/A   Clear
6:35 AM 8.6 °F - 5.0 °F 85% 30.27 in 10.0 mi Calm Calm - N/A   Clear
6:55 AM 8.6 °F - 5.0 °F 85% 30.27 in 10.0 mi Calm Calm - N/A   Clear
7:15 AM 10.4 °F - 8.6 °F 92% 30.27 in 10.0 mi Calm Calm - N/A   Clear
7:35 AM 12.2 °F - 8.6 °F 85% 30.27 in 10.0 mi Calm Calm - N/A   Clear
7:55 AM 15.8 °F - 14.0 °F 93% 30.27 in 10.0 mi Calm Calm - N/A   Clear
8:15 AM 19.4 °F - 17.6 °F 93% 30.27 in 10.0 mi Calm Calm - N/A   Clear
8:35 AM 21.2 °F - 19.4 °F 93% 30.27 in 10.0 mi Calm Calm - N/A   Clear
8:55 AM 26.6 °F - 17.6 °F 69% 30.27 in 10.0 mi Calm Calm - N/A   Clear
9:15 AM 32.0 °F - 19.4 °F 60% 30.27 in 10.0 mi Calm Calm - N/A   Clear
9:35 AM 35.6 °F - 17.6 °F 48% 30.26 in 10.0 mi Calm Calm - N/A   Clear
9:55 AM 39.2 °F 35.9 °F 14.0 °F 36% 30.26 in 10.0 mi West 4.6 mph - N/A   Clear
10:15 AM 41.0 °F 37.1 °F 12.2 °F 31% 30.26 in 10.0 mi West 5.8 mph - N/A   Clear
10:35 AM 41.0 °F 38.0 °F 14.0 °F 33% 30.26 in 10.0 mi West 4.6 mph - N/A   Clear
10:55 AM 42.8 °F 39.3 °F 12.2 °F 29% 30.25 in 10.0 mi WSW 5.8 mph - N/A   Clear
11:15 AM 42.8 °F 39.3 °F 12.2 °F 29% 30.25 in 10.0 mi West 5.8 mph - N/A   Clear
11:35 AM 42.8 °F 38.6 °F 12.2 °F 29% 30.25 in 10.0 mi NW 6.9 mph - N/A   Clear
11:55 AM 42.8 °F 41.1 °F 12.2 °F 29% 30.24 in 10.0 mi West 3.5 mph - N/A   Clear
12:15 PM 44.6 °F 40.7 °F 12.2 °F 27% 30.24 in 10.0 mi WSW 6.9 mph - N/A   Clear
12:35 PM 44.6 °F 41.4 °F 12.2 °F 27% 30.23 in 10.0 mi West 5.8 mph - N/A   Clear
12:55 PM 44.6 °F 42.2 °F 12.2 °F 27% 30.23 in 10.0 mi West 4.6 mph - N/A   Clear
1:15 PM 44.6 °F 41.4 °F 12.2 °F 27% 30.22 in 10.0 mi NNW 5.8 mph - N/A   Clear
1:35 PM 44.6 °F 43.1 °F 12.2 °F 27% 30.22 in 10.0 mi West 3.5 mph - N/A   Clear
1:55 PM 44.6 °F - 12.2 °F 27% 30.21 in 10.0 mi Calm Calm - N/A   Clear
2:15 PM 44.6 °F - 12.2 °F 27% 30.20 in 10.0 mi Calm Calm - N/A   Clear
2:35 PM 46.4 °F 44.3 °F 12.2 °F 25% 30.20 in 10.0 mi WNW 4.6 mph - N/A   Clear
2:55 PM 46.4 °F 43.5 °F 12.2 °F 25% 30.19 in 10.0 mi West 5.8 mph - N/A   Clear
3:15 PM 46.4 °F 44.3 °F 12.2 °F 25% 30.19 in 10.0 mi SSE 4.6 mph - N/A   Clear
3:35 PM 46.4 °F 44.3 °F 12.2 °F 25% 30.18 in 10.0 mi SW 4.6 mph - N/A   Clear
3:55 PM 46.4 °F 43.5 °F 12.2 °F 25% 30.17 in 10.0 mi WSW 5.8 mph - N/A   Clear
4:15 PM 46.4 °F 44.3 °F 12.2 °F 25% 30.16 in 10.0 mi WNW 4.6 mph - N/A   Clear
4:35 PM 46.4 °F 43.5 °F 12.2 °F 25% 30.16 in 10.0 mi SW 5.8 mph - N/A   Clear
4:55 PM 46.4 °F 44.3 °F 14.0 °F 27% 30.15 in 10.0 mi SW 4.6 mph - N/A   Clear
5:15 PM 46.4 °F 44.3 °F 14.0 °F 27% 30.15 in 10.0 mi WSW 4.6 mph - N/A   Clear
5:35 PM 46.4 °F 45.2 °F 14.0 °F 27% 30.15 in 10.0 mi SW 3.5 mph - N/A   Clear
5:55 PM 46.4 °F 43.5 °F 14.0 °F 27% 30.15 in 10.0 mi WSW 5.8 mph - N/A   Clear
6:15 PM 46.4 °F - 14.0 °F 27% 30.15 in 10.0 mi Calm Calm - N/A   Clear
6:35 PM 46.4 °F 44.3 °F 14.0 °F 27% 30.15 in 10.0 mi SW 4.6 mph - N/A   Clear
6:55 PM 44.6 °F 42.2 °F 15.8 °F 31% 30.14 in 10.0 mi SW 4.6 mph - N/A   Clear
7:15 PM 42.8 °F 41.1 °F 15.8 °F 34% 30.14 in 10.0 mi WSW 3.5 mph - N/A   Clear
7:35 PM 42.8 °F - 15.8 °F 34% 30.13 in 10.0 mi Calm Calm - N/A   Clear
7:55 PM 33.8 °F - 17.6 °F 52% 30.13 in 10.0 mi Calm Calm - N/A   Clear
8:15 PM 32.0 °F - 19.4 °F 60% 30.14 in 10.0 mi Calm Calm - N/A   Clear
8:35 PM 32.0 °F - 21.2 °F 64% 30.14 in 10.0 mi Calm Calm - N/A   Clear
8:55 PM 30.2 °F - 21.2 °F 69% 30.14 in 10.0 mi Calm Calm - N/A   Clear
9:15 PM 30.2 °F - 21.2 °F 69% 30.14 in 10.0 mi Calm Calm - N/A   Clear
9:35 PM 30.2 °F 26.7 °F 21.2 °F 69% 30.15 in 10.0 mi SW 3.5 mph - N/A   Clear
9:55 PM 30.2 °F 26.7 °F 21.2 °F 69% 30.15 in 10.0 mi SW 3.5 mph - N/A   Clear
10:15 PM 32.0 °F 28.7 °F 21.2 °F 64% 30.14 in 10.0 mi SW 3.5 mph - N/A   Clear
10:35 PM 28.4 °F - 21.2 °F 74% 30.14 in 10.0 mi Calm Calm - N/A   Clear
10:55 PM 32.0 °F 28.7 °F 19.4 °F 60% 30.13 in 10.0 mi SW 3.5 mph - N/A   Clear
11:15 PM 32.0 °F 28.7 °F 19.4 °F 60% 30.12 in 10.0 mi SW 3.5 mph - N/A   Clear
11:35 PM 32.0 °F - 19.4 °F 60% 30.12 in 10.0 mi Calm Calm - N/A   Scattered Clouds
11:55 PM 28.4 °F - 19.4 °F 69% 30.12 in 10.0 mi Calm Calm - N/A   Clear